When you browse on this site, cookies collect data to enhance your experience and personalize the content and advertising you see.
Visit our Privacy Policy to learn more. By continuing to use the site, you agree to this use of cookies and data.
  • In United Kingdom
  • List of Countries
  • For 7 days
  • Water Temperature
  • Satellite Maps
  • Weather Map
  • Weather Widgets
  • user-avatar
    Login

    Hourly Weather Innsbruck

    Today, 12 December, Wednesday

    Time Temperature Precipitation Wind Pressure Humidity
    00:00 -15°C° 0 mm 1 mps 591 mmHg 88%
    01:00 -15°C° 0 mm 1 mps 590 mmHg 87%
    02:00 -15°C° 0 mm 1 mps 590 mmHg 87%
    03:00 -16°C° 0 mm 1 mps 590 mmHg 87%
    04:00 -16°C° 0 mm 1 mps 590 mmHg 87%
    05:00 -16°C° 0 mm 1 mps 590 mmHg 87%
    06:00 -16°C° 0 mm 1 mps 590 mmHg 87%
    07:00 -18°C° 0 mm 2 mps 590 mmHg 88%
    08:00 -15°C° 0 mm 1 mps 591 mmHg 86%
    09:00 -13°C° 0 mm 1 mps 591 mmHg 84%
    10:00 -11°C° 0 mm 1 mps 592 mmHg 82%
    11:00 -10°C° 0 mm 1 mps 592 mmHg 79%
    12:00 -9°C° 0 mm 1 mps 593 mmHg 75%
    13:00 -8°C° 0 mm 1 mps 593 mmHg 72%
    14:00 -9°C° 0 mm 1 mps 592 mmHg 77%
    15:00 -10°C° 0 mm 1 mps 591 mmHg 82%
    16:00 -12°C° 0 mm 1 mps 590 mmHg 88%
    17:00 -13°C° 0 mm 1 mps 590 mmHg 88%
    18:00 -14°C° 0 mm 1 mps 589 mmHg 88%
    19:00 -15°C° 0 mm 1 mps 589 mmHg 88%
    20:00 -15°C° 0 mm 1 mps 589 mmHg 86%
    21:00 -16°C° 0 mm 1 mps 589 mmHg 84%
    22:00 -16°C° 0 mm 1 mps 589 mmHg 82%
    23:00 -18°C° 0 mm 2 mps 589 mmHg 80%

    Tomorrow, 13 December, Thursday

    Time Temperature Precipitation Wind Pressure Humidity
    00:00 -18°C° 0 mm 2 mps 588 mmHg 79%
    01:00 -18°C° 0 mm 2 mps 588 mmHg 77%
    02:00 -18°C° 0 mm 2 mps 588 mmHg 77%
    03:00 -18°C° 0 mm 2 mps 587 mmHg 77%
    04:00 -19°C° 0 mm 2 mps 587 mmHg 77%
    05:00 -19°C° 0 mm 2 mps 587 mmHg 77%
    06:00 -19°C° 0 mm 2 mps 587 mmHg 78%
    07:00 -19°C° 0 mm 2 mps 586 mmHg 78%
    08:00 -18°C° 0 mm 2 mps 587 mmHg 78%
    09:00 -16°C° 0 mm 2 mps 587 mmHg 77%
    10:00 -15°C° 0 mm 2 mps 588 mmHg 77%
    11:00 -13°C° 0 mm 2 mps 588 mmHg 75%
    12:00 -10°C° 0 mm 2 mps 588 mmHg 74%
    13:00 -9°C° 0 mm 2 mps 589 mmHg 72%
    14:00 -10°C° 0 mm 2 mps 588 mmHg 76%
    15:00 -13°C° 0 mm 2 mps 587 mmHg 81%
    16:00 -14°C° 0 mm 2 mps 586 mmHg 85%
    17:00 -15°C° 0 mm 2 mps 586 mmHg 84%
    18:00 -16°C° 0 mm 2 mps 586 mmHg 84%
    19:00 -17°C° 0 mm 2 mps 586 mmHg 83%
    20:00 -17°C° 0 mm 2 mps 586 mmHg 82%
    21:00 -17°C° 0 mm 2 mps 586 mmHg 81%
    22:00 -17°C° 0 mm 2 mps 586 mmHg 80%
    23:00 -17°C° 0 mm 2 mps 586 mmHg 79%

    Day after tomorrow, 14 December, Friday

    Time Temperature Precipitation Wind Pressure Humidity
    00:00 -17°C° 0 mm 2 mps 586 mmHg 78%
    01:00 -16°C° 0 mm 2 mps 586 mmHg 77%
    02:00 -16°C° 0 mm 2 mps 586 mmHg 77%
    03:00 -16°C° 0 mm 2 mps 586 mmHg 77%
    04:00 -16°C° 0 mm 2 mps 586 mmHg 77%
    05:00 -16°C° 0 mm 2 mps 586 mmHg 77%
    06:00 -16°C° 0 mm 2 mps 587 mmHg 78%
    07:00 -16°C° 0 mm 2 mps 587 mmHg 78%
    08:00 -12°C° 0 mm 1 mps 588 mmHg 77%
    09:00 -11°C° 0 mm 1 mps 589 mmHg 77%
    10:00 -9°C° 0 mm 1 mps 589 mmHg 76%
    11:00 -8°C° 0 mm 1 mps 590 mmHg 74%
    12:00 -6°C° 0 mm 1 mps 590 mmHg 71%
    13:00 -4°C° 0 mm 1 mps 591 mmHg 69%
    14:00 -7°C° 0 mm 0 mps 590 mmHg 75%
    15:00 -8°C° 0 mm 0 mps 590 mmHg 82%
    16:00 -10°C° 0 mm 0 mps 589 mmHg 88%
    17:00 -11°C° 0 mm 0 mps 589 mmHg 88%
    18:00 -11°C° 0 mm 1 mps 589 mmHg 89%
    19:00 -12°C° 0 mm 1 mps 589 mmHg 90%
    20:00 -12°C° 0 mm 1 mps 589 mmHg 89%
    21:00 -12°C° 0 mm 1 mps 590 mmHg 88%
    22:00 -13°C° 0 mm 1 mps 590 mmHg 87%
    23:00 -13°C° 0 mm 1 mps 590 mmHg 85%

    15 December, Saturday

    Time Temperature Precipitation Wind Pressure Humidity
    00:00 -13°C° 0 mm 1 mps 590 mmHg 84%
    01:00 -13°C° 0 mm 1 mps 590 mmHg 83%
    02:00 -14°C° 0 mm 1 mps 590 mmHg 83%
    03:00 -14°C° 0 mm 1 mps 590 mmHg 84%
    04:00 -14°C° 0 mm 1 mps 590 mmHg 84%
    05:00 -14°C° 0 mm 1 mps 590 mmHg 85%
    06:00 -14°C° 0 mm 1 mps 590 mmHg 86%
    07:00 -14°C° 0 mm 1 mps 590 mmHg 88%
    08:00 -13°C° 0 mm 1 mps 591 mmHg 86%
    09:00 -12°C° 0 mm 1 mps 592 mmHg 85%
    10:00 -10°C° 0 mm 1 mps 593 mmHg 84%
    11:00 -9°C° 0 mm 1 mps 593 mmHg 80%
    12:00 -8°C° 0 mm 1 mps 594 mmHg 76%
    13:00 -7°C° 0 mm 1 mps 594 mmHg 72%
    14:00 -8°C° 0 mm 1 mps 593 mmHg 76%
    15:00 -10°C° 0 mm 1 mps 592 mmHg 80%
    16:00 -12°C° 0 mm 1 mps 592 mmHg 84%
    17:00 -12°C° 0 mm 1 mps 592 mmHg 79%
    18:00 -13°C° 0 mm 1 mps 592 mmHg 73%
    19:00 -16°C° 0 mm 2 mps 591 mmHg 68%
    20:00 -16°C° 0 mm 2 mps 592 mmHg 62%
    21:00 -16°C° 0 mm 2 mps 592 mmHg 57%
    22:00 -16°C° 0 mm 2 mps 592 mmHg 52%
    23:00 -16°C° 0 mm 2 mps 592 mmHg 49%

    16 December, Sunday

    Time Temperature Precipitation Wind Pressure Humidity
    00:00 -15°C° 0 mm 2 mps 592 mmHg 46%
    01:00 -15°C° 0 mm 2 mps 592 mmHg 44%
    02:00 -14°C° 0 mm 2 mps 592 mmHg 43%
    03:00 -13°C° 0 mm 2 mps 592 mmHg 43%
    04:00 -12°C° 0 mm 2 mps 592 mmHg 42%
    05:00 -10°C° 0.1 mm 2 mps 593 mmHg 49%
    06:00 -8°C° 0.1 mm 1 mps 593 mmHg 56%
    07:00 -6°C° 0.1 mm 1 mps 594 mmHg 64%
    08:00 -4°C° 0.8 mm 1 mps 594 mmHg 70%
    09:00 -3°C° 0.8 mm 1 mps 594 mmHg 77%
    10:00 -2°C° 0.8 mm 1 mps 595 mmHg 84%
    11:00 -3°C° 0.2 mm 2 mps 595 mmHg 84%
    12:00 -2°C° 0.2 mm 2 mps 595 mmHg 85%
    13:00 -1°C° 0.2 mm 2 mps 595 mmHg 86%
    14:00 -1°C° 0.2 mm 2 mps 595 mmHg 85%
    15:00 0°C° 0.2 mm 1 mps 595 mmHg 84%
    16:00 0°C° 0.2 mm 1 mps 594 mmHg 84%
    17:00 0°C° 0.5 mm 1 mps 594 mmHg 84%
    18:00 -1°C° 0.5 mm 1 mps 595 mmHg 84%
    19:00 -1°C° 0.5 mm 1 mps 595 mmHg 84%
    20:00 -1°C° 0.3 mm 1 mps 594 mmHg 84%
    21:00 -1°C° 0.3 mm 1 mps 594 mmHg 84%
    22:00 -2°C° 0.3 mm 1 mps 594 mmHg 84%
    23:00 -2°C° 0.1 mm 1 mps 594 mmHg 83%

    17 December, Monday

    Time Temperature Precipitation Wind Pressure Humidity
    00:00 -2°C° 0.1 mm 1 mps 594 mmHg 83%
    01:00 -4°C° 0.1 mm 2 mps 594 mmHg 82%
    02:00 -4°C° 0.3 mm 2 mps 593 mmHg 82%
    03:00 -5°C° 0.3 mm 2 mps 593 mmHg 82%
    04:00 -5°C° 0.3 mm 2 mps 593 mmHg 82%
    05:00 -3°C° 0.6 mm 1 mps 593 mmHg 84%
    06:00 -3°C° 0.6 mm 1 mps 593 mmHg 86%
    07:00 -3°C° 0.6 mm 1 mps 593 mmHg 88%
    08:00 -3°C° 0.4 mm 1 mps 593 mmHg 88%
    09:00 -2°C° 0.4 mm 1 mps 594 mmHg 88%
    10:00 -2°C° 0.4 mm 1 mps 594 mmHg 89%
    11:00 -1°C° 0.5 mm 1 mps 594 mmHg 90%
    12:00 -1°C° 0.5 mm 1 mps 593 mmHg 90%
    13:00 0°C° 0.5 mm 1 mps 593 mmHg 91%
    14:00 -1°C° 0.4 mm 1 mps 593 mmHg 91%
    15:00 -3°C° 0.4 mm 2 mps 592 mmHg 91%
    16:00 -3°C° 0.4 mm 2 mps 592 mmHg 91%
    17:00 -2°C° 0.9 mm 1 mps 592 mmHg 92%
    18:00 -2°C° 0.9 mm 1 mps 592 mmHg 93%
    19:00 -2°C° 0.9 mm 1 mps 592 mmHg 94%
    20:00 -2°C° 2 mm 1 mps 592 mmHg 95%
    21:00 -2°C° 2 mm 1 mps 592 mmHg 95%
    22:00 -4°C° 2 mm 2 mps 592 mmHg 96%
    23:00 -5°C° 1.1 mm 2 mps 593 mmHg 96%
    Show more